Time,TemperatureF,DewpointF,PressureIn,WindDirection,WindDirectionDegrees,WindSpeedMPH,WindSpeedGustMPH,Humidity,HourlyPrecipIn,Conditions,Clouds,dailyrainin,SoftwareType,DateUTC
2013-03-17 00:00:00,27.3,5.1,29.80,NW,319,2.7,3.6,38,0.00,,---,0.00,VWS V14.01,2013-03-17 04:00:00,
2013-03-17 00:01:00,27.3,5.1,29.80,NW,319,0.0,2.7,38,0.00,,---,0.00,VWS V14.01,2013-03-17 04:01:00,
2013-03-17 00:02:00,27.3,5.1,29.80,NW,319,0.0,0.0,38,0.00,,---,0.00,VWS V14.01,2013-03-17 04:02:00,
2013-03-17 00:08:00,28.9,10.8,29.80,NW,319,2.2,4.0,46,0.00,,---,0.00,VWS V14.01,2013-03-17 04:08:00,
2013-03-17 00:11:00,28.9,11.2,29.77,NW,319,0.0,3.6,47,0.00,,---,0.00,VWS V14.01,2013-03-17 04:11:00,
2013-03-17 00:16:00,28.4,9.3,29.77,NW,319,0.0,2.2,44,0.00,,---,0.00,VWS V14.01,2013-03-17 04:16:00,
2013-03-17 00:21:00,28.0,8.4,29.77,NW,319,0.0,0.0,43,0.00,,---,0.00,VWS V14.01,2013-03-17 04:21:00,
2013-03-17 00:27:00,27.9,7.2,29.80,NW,319,0.0,0.0,41,0.00,,---,0.00,VWS V14.01,2013-03-17 04:27:00,
2013-03-17 00:32:00,27.7,3.0,29.80,NW,319,2.2,4.0,34,0.00,,---,0.00,VWS V14.01,2013-03-17 04:32:00,
2013-03-17 00:38:00,27.9,2.5,29.80,NW,319,0.0,3.1,33,0.00,,---,0.00,VWS V14.01,2013-03-17 04:38:00,
2013-03-17 00:44:00,27.9,2.5,29.80,NW,319,2.2,3.1,33,0.00,,---,0.00,VWS V14.01,2013-03-17 04:44:00,
2013-03-17 00:49:00,27.9,3.2,29.80,NW,319,0.0,0.0,34,0.00,,---,0.00,VWS V14.01,2013-03-17 04:49:00,
2013-03-17 00:54:00,27.9,3.2,29.80,NW,319,3.1,3.1,34,0.00,,---,0.00,VWS V14.01,2013-03-17 04:54:00,
2013-03-17 00:59:00,27.9,2.5,29.80,NW,319,3.1,3.6,33,0.00,,---,0.00,VWS V14.01,2013-03-17 04:59:00,
2013-03-17 01:05:00,28.8,11.1,29.80,NW,319,3.1,3.1,47,0.00,,---,0.00,VWS V14.01,2013-03-17 05:05:00,
2013-03-17 01:10:00,28.6,8.4,29.80,NW,319,2.7,3.1,42,0.00,,---,0.00,VWS V14.01,2013-03-17 05:10:00,
2013-03-17 01:16:00,28.2,5.3,29.80,NW,319,0.0,2.2,37,0.00,,---,0.00,VWS V14.01,2013-03-17 05:16:00,
2013-03-17 01:21:00,28.0,3.9,29.80,NW,319,0.0,2.7,35,0.00,,---,0.00,VWS V14.01,2013-03-17 05:21:00,
2013-03-17 01:26:00,28.0,3.9,29.80,NW,319,0.0,0.0,35,0.00,,---,0.00,VWS V14.01,2013-03-17 05:26:00,
2013-03-17 01:31:00,28.0,3.9,29.80,NW,319,0.0,0.0,35,0.00,,---,0.00,VWS V14.01,2013-03-17 05:31:00,
2013-03-17 01:37:00,28.0,3.3,29.80,NW,319,0.0,3.1,34,0.00,,---,0.00,VWS V14.01,2013-03-17 05:37:00,
2013-03-17 01:43:00,28.2,3.5,29.80,NW,319,2.7,4.5,34,0.00,,---,0.00,VWS V14.01,2013-03-17 05:43:00,
2013-03-17 01:48:00,28.2,4.1,29.80,NW,319,0.0,0.0,35,0.00,,---,0.00,VWS V14.01,2013-03-17 05:48:00,
2013-03-17 01:54:00,28.2,4.7,29.80,NW,319,2.7,2.7,36,0.00,,---,0.00,VWS V14.01,2013-03-17 05:54:00,
2013-03-17 01:59:00,28.9,10.8,29.80,NW,319,4.9,5.4,46,0.00,,---,0.00,VWS V14.01,2013-03-17 05:59:00,
2013-03-17 02:05:00,28.6,4.4,29.80,NW,318,3.6,3.6,35,0.00,,---,0.00,VWS V14.01,2013-03-17 06:05:00,
2013-03-17 02:10:00,28.6,5.0,29.80,NW,318,4.9,4.9,36,0.00,,---,0.00,VWS V14.01,2013-03-17 06:10:00,
2013-03-17 02:16:00,28.4,4.9,29.80,NW,318,2.2,3.6,36,0.00,,---,0.00,VWS V14.01,2013-03-17 06:16:00,
2013-03-17 02:22:00,28.2,4.7,29.80,NW,318,0.0,4.5,36,0.00,,---,0.00,VWS V14.01,2013-03-17 06:22:00,
2013-03-17 02:27:00,28.4,5.5,29.80,NW,318,4.0,5.8,37,0.00,,---,0.00,VWS V14.01,2013-03-17 06:27:00,
2013-03-17 02:33:00,28.4,5.5,29.80,NW,318,3.1,3.6,37,0.00,,---,0.00,VWS V14.01,2013-03-17 06:33:00,
2013-03-17 02:38:00,28.4,5.5,29.80,NW,318,3.1,3.6,37,0.00,,---,0.00,VWS V14.01,2013-03-17 06:38:00,
2013-03-17 02:43:00,28.4,5.5,29.80,NW,318,4.0,5.8,37,0.00,,---,0.00,VWS V14.01,2013-03-17 06:43:00,
2013-03-17 02:48:00,28.4,5.5,29.80,NW,318,2.2,4.0,37,0.00,,---,0.00,VWS V14.01,2013-03-17 06:48:00,
2013-03-17 02:54:00,29.3,13.0,29.80,NW,318,0.0,2.2,50,0.00,,---,0.00,VWS V14.01,2013-03-17 06:54:00,
2013-03-17 02:59:00,28.9,8.2,29.83,NW,318,4.0,4.0,41,0.00,,---,0.00,VWS V14.01,2013-03-17 06:59:00,
2013-03-17 03:05:00,28.6,5.6,29.83,NW,318,6.3,6.3,37,0.00,,---,0.00,VWS V14.01,2013-03-17 07:05:00,
2013-03-17 03:11:00,28.4,4.9,29.80,NW,318,3.1,4.0,36,0.00,,---,0.00,VWS V14.01,2013-03-17 07:11:00,
2013-03-17 03:16:00,28.4,6.1,29.80,NW,318,3.6,3.6,38,0.00,,---,0.00,VWS V14.01,2013-03-17 07:16:00,
2013-03-17 03:21:00,28.4,5.5,29.80,NW,318,0.0,0.0,37,0.00,,---,0.00,VWS V14.01,2013-03-17 07:21:00,
2013-03-17 03:27:00,28.4,5.5,29.83,NW,318,2.2,2.2,37,0.00,,---,0.00,VWS V14.01,2013-03-17 07:27:00,
2013-03-17 03:32:00,28.4,6.1,29.83,NW,318,2.7,3.1,38,0.00,,---,0.00,VWS V14.01,2013-03-17 07:32:00,
2013-03-17 03:37:00,28.2,4.7,29.83,NW,318,4.0,6.3,36,0.00,,---,0.00,VWS V14.01,2013-03-17 07:37:00,
2013-03-17 03:43:00,28.4,6.1,29.83,NW,318,0.0,0.0,38,0.00,,---,0.00,VWS V14.01,2013-03-17 07:43:00,
2013-03-17 03:48:00,29.3,12.5,29.83,NW,318,3.1,4.0,49,0.00,,---,0.00,VWS V14.01,2013-03-17 07:48:00,
2013-03-17 03:54:00,28.6,7.3,29.83,NW,318,3.6,3.6,40,0.00,,---,0.00,VWS V14.01,2013-03-17 07:54:00,
2013-03-17 03:59:00,27.9,6.1,29.83,NW,318,4.9,5.4,39,0.00,,---,0.00,VWS V14.01,2013-03-17 07:59:00,
2013-03-17 04:05:00,27.7,7.1,29.83,NW,318,3.1,3.1,41,0.00,,---,0.00,VWS V14.01,2013-03-17 08:05:00,
2013-03-17 04:11:00,27.5,5.8,29.83,NW,318,3.1,3.6,39,0.00,,---,0.00,VWS V14.01,2013-03-17 08:11:00,
2013-03-17 04:17:00,27.0,1.7,29.83,NW,318,3.1,4.0,33,0.00,,---,0.00,VWS V14.01,2013-03-17 08:17:00,
2013-03-17 04:22:00,27.0,2.3,29.83,NW,318,3.1,3.6,34,0.00,,---,0.00,VWS V14.01,2013-03-17 08:22:00,
2013-03-17 04:28:00,26.6,2.0,29.83,NW,318,2.7,2.7,34,0.00,,---,0.00,VWS V14.01,2013-03-17 08:28:00,
2013-03-17 04:33:00,26.6,2.7,29.83,NW,318,0.0,0.0,35,0.00,,---,0.00,VWS V14.01,2013-03-17 08:33:00,
2013-03-17 04:39:00,26.4,2.5,29.83,NW,318,0.0,2.7,35,0.00,,---,0.00,VWS V14.01,2013-03-17 08:39:00,
2013-03-17 04:44:00,27.7,11.0,29.83,NW,318,2.7,3.1,49,0.00,,---,0.00,VWS V14.01,2013-03-17 08:44:00,
2013-03-17 04:49:00,25.9,0.8,29.83,NW,318,3.6,3.6,33,0.00,,---,0.00,VWS V14.01,2013-03-17 08:49:00,
2013-03-17 04:54:00,25.5,0.4,29.83,NW,317,2.7,2.7,33,0.00,,---,0.00,VWS V14.01,2013-03-17 08:54:00,
2013-03-17 05:00:00,25.3,1.5,29.85,NW,318,0.0,0.0,35,0.00,,---,0.00,VWS V14.01,2013-03-17 09:00:00,
2013-03-17 05:05:00,24.8,1.0,29.85,NW,318,0.0,0.0,35,0.00,,---,0.00,VWS V14.01,2013-03-17 09:05:00,
2013-03-17 05:11:00,24.4,1.9,29.85,NW,318,0.0,0.0,37,0.00,,---,0.00,VWS V14.01,2013-03-17 09:11:00,
2013-03-17 05:17:00,24.3,1.8,29.85,NW,318,2.7,3.1,37,0.00,,---,0.00,VWS V14.01,2013-03-17 09:17:00,
2013-03-17 05:22:00,23.9,2.6,29.85,NW,318,0.0,0.0,39,0.00,,---,0.00,VWS V14.01,2013-03-17 09:22:00,
2013-03-17 05:27:00,26.1,13.7,29.85,NW,318,0.0,0.0,59,0.00,,---,0.00,VWS V14.01,2013-03-17 09:27:00,
2013-03-17 05:33:00,27.0,19.8,29.85,NW,318,0.0,0.0,74,0.00,,---,0.00,VWS V14.01,2013-03-17 09:33:00,
2013-03-17 05:39:00,24.6,14.6,29.85,NW,318,0.0,0.0,65,0.00,,---,0.00,VWS V14.01,2013-03-17 09:39:00,
2013-03-17 05:45:00,23.5,13.2,29.85,NW,318,0.0,0.0,64,0.00,,---,0.00,VWS V14.01,2013-03-17 09:45:00,
2013-03-17 05:50:00,23.2,13.2,29.85,NW,318,0.0,0.0,65,0.00,,---,0.00,VWS V14.01,2013-03-17 09:50:00,
2013-03-17 05:56:00,23.0,14.0,29.85,NW,318,0.0,0.0,68,0.00,,---,0.00,VWS V14.01,2013-03-17 09:56:00,
2013-03-17 06:01:00,23.0,15.0,29.85,NW,318,0.0,0.0,71,0.00,,---,0.00,VWS V14.01,2013-03-17 10:01:00,
2013-03-17 06:07:00,23.4,16.0,29.85,NW,318,0.0,0.0,73,0.00,,---,0.00,VWS V14.01,2013-03-17 10:07:00,
2013-03-17 06:13:00,23.4,14.4,29.85,NW,318,0.0,0.0,68,0.00,,---,0.00,VWS V14.01,2013-03-17 10:13:00,
2013-03-17 06:18:00,28.6,24.9,29.85,NW,318,0.0,0.0,86,0.00,,---,0.00,VWS V14.01,2013-03-17 10:18:00,
2013-03-17 06:24:00,27.0,21.9,29.85,NW,318,0.0,0.0,81,0.00,,---,0.00,VWS V14.01,2013-03-17 10:24:00,
2013-03-17 06:29:00,25.5,19.6,29.88,NW,318,0.0,0.0,78,0.00,,---,0.00,VWS V14.01,2013-03-17 10:29:00,
2013-03-17 06:35:00,24.4,10.6,29.88,NW,318,0.0,0.0,55,0.00,,---,0.00,VWS V14.01,2013-03-17 10:35:00,
2013-03-17 06:41:00,24.1,4.8,29.88,NW,318,0.0,0.0,43,0.00,,---,0.00,VWS V14.01,2013-03-17 10:41:00,
2013-03-17 06:47:00,24.3,4.5,29.88,NW,318,0.0,0.0,42,0.00,,---,0.00,VWS V14.01,2013-03-17 10:47:00,
2013-03-17 06:53:00,24.3,1.8,29.88,NW,318,0.0,3.1,37,0.00,,---,0.00,VWS V14.01,2013-03-17 10:53:00,
2013-03-17 06:59:00,24.1,0.4,29.88,NW,318,2.7,2.7,35,0.00,,---,0.00,VWS V14.01,2013-03-17 10:59:00,
2013-03-17 07:04:00,24.4,3.0,29.88,NW,317,4.0,6.3,39,0.00,,---,0.00,VWS V14.01,2013-03-17 11:04:00,
2013-03-17 07:10:00,26.1,9.1,29.88,NW,317,2.2,3.6,48,0.00,,---,0.00,VWS V14.01,2013-03-17 11:10:00,
2013-03-17 07:15:00,25.2,4.2,29.91,NW,317,2.7,3.6,40,0.00,,---,0.00,VWS V14.01,2013-03-17 11:15:00,
2013-03-17 07:21:00,24.1,-0.9,29.91,NW,317,4.0,5.8,33,0.00,,---,0.00,VWS V14.01,2013-03-17 11:21:00,
2013-03-17 07:26:00,23.9,-1.0,29.91,NW,317,0.0,2.7,33,0.00,,---,0.00,VWS V14.01,2013-03-17 11:26:00,
2013-03-17 07:32:00,23.5,-1.3,29.91,NW,317,3.1,4.9,33,0.00,,---,0.00,VWS V14.01,2013-03-17 11:32:00,
2013-03-17 07:37:00,23.0,-1.8,29.91,NW,317,4.0,6.7,33,0.00,,---,0.00,VWS V14.01,2013-03-17 11:37:00,
2013-03-17 07:43:00,22.6,-2.8,29.91,NW,317,5.8,5.8,32,0.00,,---,0.00,VWS V14.01,2013-03-17 11:43:00,
2013-03-17 07:49:00,22.5,-2.9,29.91,NW,317,2.7,3.6,32,0.00,,---,0.00,VWS V14.01,2013-03-17 11:49:00,
2013-03-17 07:55:00,22.3,-4.4,29.91,NW,317,3.6,5.4,30,0.00,,---,0.00,VWS V14.01,2013-03-17 11:55:00,
2013-03-17 08:02:00,22.1,-4.6,29.94,NW,317,3.1,5.4,30,0.00,,---,0.00,VWS V14.01,2013-03-17 12:02:00,
2013-03-17 08:07:00,21.9,-4.8,29.94,NW,317,7.2,7.2,30,0.00,,---,0.00,VWS V14.01,2013-03-17 12:07:00,
2013-03-17 08:13:00,22.3,1.1,29.94,NW,317,6.3,6.3,39,0.00,,---,0.00,VWS V14.01,2013-03-17 12:13:00,
2013-03-17 08:18:00,22.1,-3.2,29.94,NW,317,2.7,4.5,32,0.00,,---,0.00,VWS V14.01,2013-03-17 12:18:00,
2013-03-17 08:24:00,22.3,-3.1,29.94,NW,317,0.0,0.0,32,0.00,,---,0.00,VWS V14.01,2013-03-17 12:24:00,
2013-03-17 08:29:00,22.1,-3.2,29.94,NW,317,4.0,4.9,32,0.00,,---,0.00,VWS V14.01,2013-03-17 12:29:00,
2013-03-17 08:34:00,22.6,-4.1,29.94,NW,317,0.0,3.6,30,0.00,,---,0.00,VWS V14.01,2013-03-17 12:34:00,
2013-03-17 08:40:00,22.8,-6.1,29.94,NW,317,2.7,3.1,27,0.00,,---,0.00,VWS V14.01,2013-03-17 12:40:00,
2013-03-17 08:45:00,22.6,-6.3,29.97,NW,317,2.7,6.3,27,0.00,,---,0.00,VWS V14.01,2013-03-17 12:45:00,
2013-03-17 08:52:00,23.0,-6.0,29.97,NW,317,3.1,4.9,27,0.00,,---,0.00,VWS V14.01,2013-03-17 12:52:00,
2013-03-17 08:58:00,23.9,0.2,29.97,NW,317,3.6,5.8,35,0.00,,---,0.00,VWS V14.01,2013-03-17 12:58:00,
2013-03-17 09:03:00,24.1,-5.1,29.97,NW,317,5.4,7.6,27,0.00,,---,0.00,VWS V14.01,2013-03-17 13:03:00,
2013-03-17 09:09:00,24.6,-7.0,29.97,NW,317,0.0,2.7,24,0.00,,---,0.00,VWS V14.01,2013-03-17 13:09:00,
2013-03-17 09:15:00,23.7,-9.6,29.97,NW,317,3.1,6.3,22,0.00,,---,0.00,VWS V14.01,2013-03-17 13:15:00,
2013-03-17 09:20:00,23.9,-7.6,29.97,NW,317,3.1,3.1,24,0.00,,---,0.00,VWS V14.01,2013-03-17 13:20:00,
2013-03-17 09:26:00,23.9,-9.4,29.97,NW,317,4.0,4.0,22,0.00,,---,0.00,VWS V14.01,2013-03-17 13:26:00,
2013-03-17 09:32:00,25.0,-9.4,29.97,NW,317,3.6,3.6,21,0.00,,---,0.00,VWS V14.01,2013-03-17 13:32:00,
2013-03-17 09:37:00,26.4,-8.2,29.97,NW,317,3.1,3.6,21,0.00,,---,0.00,VWS V14.01,2013-03-17 13:37:00,
2013-03-17 09:43:00,27.1,-7.6,30.00,NW,321,6.7,6.7,21,0.00,,---,0.00,VWS V14.01,2013-03-17 13:43:00,
2013-03-17 09:48:00,27.7,-10.3,30.00,NNW,339,4.0,5.4,18,0.00,,---,0.00,VWS V14.01,2013-03-17 13:48:00,
2013-03-17 09:53:00,26.8,-11.0,30.00,NNW,339,3.6,3.6,18,0.00,,---,0.00,VWS V14.01,2013-03-17 13:53:00,
2013-03-17 09:58:00,27.5,-7.3,30.00,NNW,339,3.1,5.8,21,0.00,,---,0.00,VWS V14.01,2013-03-17 13:58:00,
2013-03-17 10:04:00,27.3,-7.4,30.00,NNW,338,5.8,5.8,21,0.00,,---,0.00,VWS V14.01,2013-03-17 14:04:00,
2013-03-17 10:09:00,28.8,-2.6,30.00,NNW,338,5.4,5.8,25,0.00,,---,0.00,VWS V14.01,2013-03-17 14:09:00,
2013-03-17 10:15:00,30.2,-8.2,30.00,WNW,283,2.7,2.7,18,0.00,,---,0.00,VWS V14.01,2013-03-17 14:15:00,
2013-03-17 10:20:00,31.1,-7.4,30.00,WNW,283,4.0,4.0,18,0.00,,---,0.00,VWS V14.01,2013-03-17 14:20:00,
2013-03-17 10:26:00,29.5,-8.8,30.00,WNW,283,3.1,3.1,18,0.00,,---,0.00,VWS V14.01,2013-03-17 14:26:00,
2013-03-17 10:32:00,27.7,-12.6,30.00,WNW,283,5.8,5.8,16,0.00,,---,0.00,VWS V14.01,2013-03-17 14:32:00,
2013-03-17 10:37:00,28.0,-12.4,30.00,WNW,283,4.0,4.0,16,0.00,,---,0.00,VWS V14.01,2013-03-17 14:37:00,
2013-03-17 10:43:00,27.5,-12.8,30.00,WNW,283,2.7,2.7,16,0.00,,---,0.00,VWS V14.01,2013-03-17 14:43:00,
2013-03-17 10:49:00,29.5,-12.5,30.00,WNW,283,3.6,3.6,15,0.00,,---,0.00,VWS V14.01,2013-03-17 14:49:00,
2013-03-17 10:54:00,31.3,-7.3,30.00,WNW,283,0.0,0.0,18,0.00,,---,0.00,VWS V14.01,2013-03-17 14:54:00,
2013-03-17 11:00:00,30.6,-11.6,30.00,WNW,283,4.0,4.0,15,0.00,,---,0.00,VWS V14.01,2013-03-17 15:00:00,
2013-03-17 11:05:00,29.7,-12.3,30.00,WNW,283,3.6,3.6,15,0.00,,---,0.00,VWS V14.01,2013-03-17 15:05:00,
2013-03-17 11:10:00,31.3,-11.0,30.00,WNW,283,2.7,2.7,15,0.00,,---,0.00,VWS V14.01,2013-03-17 15:10:00,
2013-03-17 11:15:00,32.5,-10.0,30.00,NNW,330,8.1,8.1,15,0.00,,---,0.00,VWS V14.01,2013-03-17 15:15:00,
2013-03-17 11:21:00,30.7,-11.4,30.00,West,274,4.9,5.4,15,0.00,,---,0.00,VWS V14.01,2013-03-17 15:21:00,
2013-03-17 11:27:00,29.8,-12.2,30.00,West,274,4.9,4.9,15,0.00,,---,0.00,VWS V14.01,2013-03-17 15:27:00,
2013-03-17 11:32:00,31.5,-10.9,30.00,NNW,337,2.2,2.2,15,0.00,,---,0.00,VWS V14.01,2013-03-17 15:32:00,
2013-03-17 11:38:00,30.2,-11.9,30.00,NNW,337,3.6,3.6,15,0.00,,---,0.00,VWS V14.01,2013-03-17 15:38:00,
2013-03-17 11:43:00,32.5,-10.0,30.00,NNW,337,4.0,4.0,15,0.00,,---,0.00,VWS V14.01,2013-03-17 15:43:00,
2013-03-17 11:49:00,32.4,-10.1,30.00,NNW,337,5.8,5.8,15,0.00,,---,0.00,VWS V14.01,2013-03-17 15:49:00,
2013-03-17 11:54:00,32.4,-10.1,30.00,NNW,337,0.0,0.0,15,0.00,,---,0.00,VWS V14.01,2013-03-17 15:54:00,
2013-03-17 11:59:00,33.6,-9.1,30.03,NNW,337,3.6,3.6,15,0.00,,---,0.00,VWS V14.01,2013-03-17 15:59:00,
2013-03-17 12:04:00,34.2,-6.1,30.03,NNW,337,5.4,5.4,17,0.00,,---,0.00,VWS V14.01,2013-03-17 16:04:00,
2013-03-17 12:10:00,32.5,-10.0,30.03,NNW,337,6.3,6.3,15,0.00,,---,0.00,VWS V14.01,2013-03-17 16:10:00,
2013-03-17 12:15:00,30.2,-11.9,30.03,NNW,337,5.8,5.8,15,0.00,,---,0.00,VWS V14.01,2013-03-17 16:15:00,
2013-03-17 12:21:00,32.5,-10.0,30.03,NNW,337,3.1,5.8,15,0.00,,---,0.00,VWS V14.01,2013-03-17 16:21:00,
2013-03-17 12:26:00,32.0,-10.4,30.00,NNW,337,2.7,4.0,15,0.00,,---,0.00,VWS V14.01,2013-03-17 16:26:00,
2013-03-17 12:32:00,32.0,-10.4,30.00,NNW,337,3.6,4.0,15,0.00,,---,0.00,VWS V14.01,2013-03-17 16:32:00,
2013-03-17 12:37:00,33.3,-9.4,30.00,NNW,337,10.5,10.5,15,0.00,,---,0.00,VWS V14.01,2013-03-17 16:37:00,
2013-03-17 12:42:00,34.2,-8.6,30.03,NNW,337,3.1,6.3,15,0.00,,---,0.00,VWS V14.01,2013-03-17 16:42:00,
2013-03-17 12:48:00,33.8,-8.9,30.03,NNW,338,4.0,4.0,15,0.00,,---,0.00,VWS V14.01,2013-03-17 16:48:00,
2013-03-17 12:53:00,33.8,-8.9,30.03,NNW,338,0.0,0.0,15,0.00,,---,0.00,VWS V14.01,2013-03-17 16:53:00,
2013-03-17 12:59:00,31.3,-11.0,30.03,NNW,338,5.4,8.7,15,0.00,,---,0.00,VWS V14.01,2013-03-17 16:59:00,
2013-03-17 13:05:00,30.2,-11.9,30.03,NNW,338,5.8,5.8,15,0.00,,---,0.00,VWS V14.01,2013-03-17 17:05:00,
2013-03-17 13:10:00,30.9,-7.6,30.03,NNW,337,6.3,6.3,18,0.00,,---,0.00,VWS V14.01,2013-03-17 17:10:00,
2013-03-17 13:15:00,29.8,-12.2,30.03,NNW,337,4.0,4.0,15,0.00,,---,0.00,VWS V14.01,2013-03-17 17:15:00,
2013-03-17 13:22:00,29.3,-12.6,30.03,NNW,330,6.3,6.3,15,0.00,,---,0.00,VWS V14.01,2013-03-17 17:22:00,
2013-03-17 13:28:00,28.8,-13.1,30.00,NNW,330,5.4,5.4,15,0.00,,---,0.00,VWS V14.01,2013-03-17 17:28:00,
2013-03-17 13:34:00,29.1,-12.8,30.00,NNW,330,2.7,5.4,15,0.00,,---,0.00,VWS V14.01,2013-03-17 17:34:00,
2013-03-17 13:39:00,30.6,-11.6,30.00,NNW,330,3.1,4.0,15,0.00,,---,0.00,VWS V14.01,2013-03-17 17:39:00,
2013-03-17 13:45:00,32.7,-9.8,30.00,NNW,330,3.6,3.6,15,0.00,,---,0.00,VWS V14.01,2013-03-17 17:45:00,
2013-03-17 13:50:00,32.9,-5.9,30.00,NW,319,3.6,6.3,18,0.00,,---,0.00,VWS V14.01,2013-03-17 17:50:00,
2013-03-17 13:57:00,33.4,-3.3,30.00,NW,321,5.8,5.8,20,0.04,,---,0.04,VWS V14.01,2013-03-17 17:57:00,
2013-03-17 14:02:00,33.4,-9.2,30.00,NW,321,2.2,6.3,15,0.04,,---,0.04,VWS V14.01,2013-03-17 18:02:00,
2013-03-17 14:08:00,33.1,-9.5,30.00,NW,322,3.6,8.1,15,0.04,,---,0.04,VWS V14.01,2013-03-17 18:08:00,
2013-03-17 14:14:00,32.7,-9.8,30.00,NW,322,7.6,7.6,15,0.04,,---,0.04,VWS V14.01,2013-03-17 18:14:00,
2013-03-17 14:19:00,32.0,-10.4,30.00,NW,322,2.2,4.0,15,0.04,,---,0.04,VWS V14.01,2013-03-17 18:19:00,
2013-03-17 14:25:00,32.4,-10.1,30.00,NW,322,3.1,4.9,15,0.08,,---,0.08,VWS V14.01,2013-03-17 18:25:00,
2013-03-17 14:32:00,31.1,-11.1,30.00,NW,322,0.0,6.3,15,0.08,,---,0.08,VWS V14.01,2013-03-17 18:32:00,
2013-03-17 14:38:00,32.0,-10.4,30.00,NW,322,0.0,3.6,15,0.08,,---,0.08,VWS V14.01,2013-03-17 18:38:00,
2013-03-17 14:43:00,32.0,-10.4,30.00,NW,324,3.6,4.0,15,0.08,,---,0.08,VWS V14.01,2013-03-17 18:43:00,
2013-03-17 14:49:00,32.2,-10.3,30.00,NW,324,2.7,4.9,15,0.08,,---,0.08,VWS V14.01,2013-03-17 18:49:00,
2013-03-17 14:55:00,32.5,-10.0,30.00,NW,323,4.9,6.3,15,0.08,,---,0.08,VWS V14.01,2013-03-17 18:55:00,
2013-03-17 15:00:00,32.7,-9.8,30.00,NW,323,2.2,3.6,15,0.04,,---,0.08,VWS V14.01,2013-03-17 19:00:00,
2013-03-17 15:06:00,31.6,-10.7,30.00,NW,323,3.1,5.4,15,0.04,,---,0.08,VWS V14.01,2013-03-17 19:06:00,
2013-03-17 15:12:00,32.2,-10.3,30.00,NW,323,3.6,3.6,15,0.04,,---,0.08,VWS V14.01,2013-03-17 19:12:00,
2013-03-17 15:17:00,32.0,-10.4,30.00,NW,324,2.7,5.4,15,0.04,,---,0.08,VWS V14.01,2013-03-17 19:17:00,
2013-03-17 15:23:00,32.9,-9.7,30.00,NW,322,3.6,5.4,15,0.00,,---,0.08,VWS V14.01,2013-03-17 19:23:00,
2013-03-17 15:28:00,32.2,-10.3,30.00,WNW,288,0.0,3.1,15,0.00,,---,0.08,VWS V14.01,2013-03-17 19:28:00,
2013-03-17 15:34:00,33.6,-9.1,30.00,NNW,344,5.8,8.7,15,0.00,,---,0.08,VWS V14.01,2013-03-17 19:34:00,
2013-03-17 15:40:00,33.3,-9.4,30.00,NNW,344,8.1,8.1,15,0.00,,---,0.08,VWS V14.01,2013-03-17 19:40:00,
2013-03-17 15:45:00,32.2,-10.3,30.00,NNW,344,3.1,5.8,15,0.00,,---,0.08,VWS V14.01,2013-03-17 19:45:00,
2013-03-17 15:51:00,33.4,-9.2,30.00,NNW,344,4.9,5.8,15,0.00,,---,0.08,VWS V14.01,2013-03-17 19:51:00,
2013-03-17 15:56:00,31.5,-10.9,30.00,NNW,344,5.4,5.4,15,0.00,,---,0.08,VWS V14.01,2013-03-17 19:56:00,
2013-03-17 16:02:00,31.5,-10.9,30.00,NNW,344,3.1,6.3,15,0.00,,---,0.08,VWS V14.01,2013-03-17 20:02:00,
2013-03-17 16:08:00,33.1,-9.5,30.00,NNW,344,6.3,6.3,15,0.00,,---,0.08,VWS V14.01,2013-03-17 20:08:00,
2013-03-17 16:13:00,32.0,-10.4,30.00,NNW,344,4.9,5.8,15,0.00,,---,0.08,VWS V14.01,2013-03-17 20:13:00,
2013-03-17 16:19:00,32.4,-10.1,30.00,NNW,344,2.2,2.7,15,0.00,,---,0.08,VWS V14.01,2013-03-17 20:19:00,
2013-03-17 16:24:00,32.9,-9.7,30.00,NNW,344,3.6,3.6,15,0.00,,---,0.08,VWS V14.01,2013-03-17 20:24:00,
2013-03-17 16:30:00,33.8,-8.9,30.00,NNW,344,0.0,2.2,15,0.00,,---,0.08,VWS V14.01,2013-03-17 20:30:00,
2013-03-17 16:36:00,33.8,-8.9,30.00,NNW,343,4.9,4.9,15,0.00,,---,0.08,VWS V14.01,2013-03-17 20:36:00,
2013-03-17 16:42:00,33.8,-8.9,30.00,North,353,8.3,8.3,15,0.00,,---,0.08,VWS V14.01,2013-03-17 20:42:00,
2013-03-17 16:48:00,32.0,-10.4,30.00,North,353,3.6,4.9,15,0.00,,---,0.08,VWS V14.01,2013-03-17 20:48:00,
2013-03-17 16:54:00,30.9,-11.3,30.00,North,353,7.6,7.6,15,0.00,,---,0.08,VWS V14.01,2013-03-17 20:54:00,
2013-03-17 16:59:00,30.6,-11.6,29.97,North,353,2.7,4.9,15,0.00,,---,0.08,VWS V14.01,2013-03-17 20:59:00,
2013-03-17 17:05:00,30.6,-11.6,29.97,North,353,2.2,2.2,15,0.00,,---,0.08,VWS V14.01,2013-03-17 21:05:00,
2013-03-17 17:11:00,30.0,-12.0,29.97,North,353,5.4,5.4,15,0.00,,---,0.08,VWS V14.01,2013-03-17 21:11:00,
2013-03-17 17:16:00,30.0,-12.0,29.97,North,353,7.6,7.6,15,0.00,,---,0.08,VWS V14.01,2013-03-17 21:16:00,
2013-03-17 17:22:00,30.6,-11.6,29.97,North,353,4.9,4.9,15,0.00,,---,0.08,VWS V14.01,2013-03-17 21:22:00,
2013-03-17 17:28:00,30.4,-11.7,29.97,North,353,5.8,5.8,15,0.00,,---,0.08,VWS V14.01,2013-03-17 21:28:00,
2013-03-17 17:33:00,29.8,-12.2,29.97,North,353,3.1,4.0,15,0.00,,---,0.08,VWS V14.01,2013-03-17 21:33:00,
2013-03-17 17:38:00,29.8,-12.2,29.97,North,353,8.7,8.7,15,0.00,,---,0.08,VWS V14.01,2013-03-17 21:38:00,
2013-03-17 17:43:00,29.1,-12.8,29.97,North,353,6.3,6.3,15,0.00,,---,0.08,VWS V14.01,2013-03-17 21:43:00,
2013-03-17 17:48:00,29.3,-12.6,29.97,North,353,2.2,2.7,15,0.00,,---,0.08,VWS V14.01,2013-03-17 21:48:00,
2013-03-17 17:54:00,29.3,-12.6,29.97,North,353,3.6,5.4,15,0.00,,---,0.08,VWS V14.01,2013-03-17 21:54:00,
2013-03-17 17:59:00,29.5,-12.5,29.97,North,353,3.6,3.6,15,0.00,,---,0.08,VWS V14.01,2013-03-17 21:59:00,
2013-03-17 18:05:00,29.5,-12.5,29.97,North,353,4.0,4.9,15,0.00,,---,0.08,VWS V14.01,2013-03-17 22:05:00,
2013-03-17 18:10:00,28.6,-13.2,29.97,North,353,0.0,3.6,15,0.00,,---,0.08,VWS V14.01,2013-03-17 22:10:00,
2013-03-17 18:16:00,28.8,-13.1,30.00,North,353,5.8,5.8,15,0.00,,---,0.08,VWS V14.01,2013-03-17 22:16:00,
2013-03-17 18:22:00,28.4,-12.1,30.00,North,353,3.6,3.6,16,0.00,,---,0.08,VWS V14.01,2013-03-17 22:22:00,
2013-03-17 18:27:00,28.4,-12.1,30.00,North,353,2.2,6.3,16,0.00,,---,0.08,VWS V14.01,2013-03-17 22:27:00,
2013-03-17 18:33:00,28.2,-12.2,30.00,North,353,3.1,3.1,16,0.00,,---,0.08,VWS V14.01,2013-03-17 22:33:00,
2013-03-17 18:38:00,27.1,-13.1,30.00,North,353,5.8,5.8,16,0.00,,---,0.08,VWS V14.01,2013-03-17 22:38:00,
2013-03-17 18:44:00,27.3,-12.9,30.00,North,353,2.2,2.2,16,0.00,,---,0.08,VWS V14.01,2013-03-17 22:44:00,
2013-03-17 18:50:00,27.0,-13.2,30.00,North,353,5.4,5.4,16,0.00,,---,0.08,VWS V14.01,2013-03-17 22:50:00,
2013-03-17 18:55:00,26.6,-13.5,30.00,North,353,3.1,3.1,16,0.00,,---,0.08,VWS V14.01,2013-03-17 22:55:00,
2013-03-17 19:01:00,26.8,-13.4,30.00,North,353,3.6,3.6,16,0.00,,---,0.08,VWS V14.01,2013-03-17 23:01:00,
2013-03-17 19:06:00,26.2,-13.8,30.00,North,353,4.0,4.0,16,0.00,,---,0.08,VWS V14.01,2013-03-17 23:06:00,
2013-03-17 19:12:00,25.5,-14.4,30.00,North,353,2.2,2.2,16,0.00,,---,0.08,VWS V14.01,2013-03-17 23:12:00,
2013-03-17 19:18:00,25.2,-14.7,30.00,North,353,4.9,4.9,16,0.00,,---,0.08,VWS V14.01,2013-03-17 23:18:00,
2013-03-17 19:23:00,25.0,-14.9,30.00,North,353,2.2,3.6,16,0.00,,---,0.08,VWS V14.01,2013-03-17 23:23:00,
2013-03-17 19:29:00,24.6,-14.0,30.00,North,353,3.6,3.6,17,0.00,,---,0.08,VWS V14.01,2013-03-17 23:29:00,
2013-03-17 19:35:00,24.4,-14.1,30.00,North,353,3.1,3.1,17,0.00,,---,0.08,VWS V14.01,2013-03-17 23:35:00,
2013-03-17 19:40:00,24.4,-14.1,30.00,North,353,3.1,3.1,17,0.00,,---,0.08,VWS V14.01,2013-03-17 23:40:00,
2013-03-17 19:46:00,23.7,-14.7,30.00,North,353,2.7,3.1,17,0.00,,---,0.08,VWS V14.01,2013-03-17 23:46:00,
2013-03-17 19:51:00,23.7,-14.7,30.00,North,353,0.0,0.0,17,0.00,,---,0.08,VWS V14.01,2013-03-17 23:51:00,
2013-03-17 19:56:00,23.5,-14.9,30.00,North,353,3.1,3.1,17,0.00,,---,0.08,VWS V14.01,2013-03-17 23:56:00,
2013-03-17 20:02:00,23.2,-15.2,30.00,North,353,0.0,0.0,17,0.00,,---,0.08,VWS V14.01,2013-03-18 00:02:00,
2013-03-17 20:08:00,23.2,-15.2,30.00,North,353,0.0,0.0,17,0.00,,---,0.08,VWS V14.01,2013-03-18 00:08:00,
2013-03-17 20:14:00,22.8,-15.4,30.00,North,353,0.0,0.0,17,0.00,,---,0.08,VWS V14.01,2013-03-18 00:14:00,
2013-03-17 20:19:00,22.5,-15.8,30.00,North,353,0.0,0.0,17,0.00,,---,0.08,VWS V14.01,2013-03-18 00:19:00,
2013-03-17 20:25:00,24.4,8.9,30.00,North,353,2.7,2.7,51,0.00,,---,0.08,VWS V14.01,2013-03-18 00:25:00,
2013-03-17 20:31:00,23.0,-2.5,30.00,North,353,2.7,2.7,32,0.00,,---,0.08,VWS V14.01,2013-03-18 00:31:00,
2013-03-17 20:36:00,22.1,-10.9,30.00,North,353,2.7,2.7,22,0.00,,---,0.08,VWS V14.01,2013-03-18 00:36:00,
2013-03-17 20:41:00,21.9,-11.1,30.00,North,353,4.0,4.0,22,0.00,,---,0.08,VWS V14.01,2013-03-18 00:41:00,
2013-03-17 20:46:00,21.9,-11.1,30.00,North,353,4.0,4.0,22,0.00,,---,0.08,VWS V14.01,2013-03-18 00:46:00,
2013-03-17 20:51:00,21.7,-11.2,30.00,North,353,0.0,0.0,22,0.00,,---,0.08,VWS V14.01,2013-03-18 00:51:00,
2013-03-17 20:57:00,21.7,-11.2,30.03,North,353,0.0,0.0,22,0.00,,---,0.08,VWS V14.01,2013-03-18 00:57:00,
2013-03-17 21:03:00,21.4,-11.5,30.03,North,353,2.7,2.7,22,0.00,,---,0.08,VWS V14.01,2013-03-18 01:03:00,
2013-03-17 21:08:00,21.2,-11.7,30.03,North,353,3.6,3.6,22,0.00,,---,0.08,VWS V14.01,2013-03-18 01:08:00,
2013-03-17 21:14:00,21.2,-11.7,30.03,North,353,3.1,3.1,22,0.00,,---,0.08,VWS V14.01,2013-03-18 01:14:00,
2013-03-17 21:19:00,23.2,7.3,30.03,North,353,0.0,0.0,50,0.00,,---,0.08,VWS V14.01,2013-03-18 01:19:00,
2013-03-17 21:25:00,23.2,7.3,30.03,North,353,3.1,3.1,50,0.00,,---,0.08,VWS V14.01,2013-03-18 01:25:00,
2013-03-17 21:31:00,22.5,6.2,30.03,North,353,0.0,0.0,49,0.00,,---,0.08,VWS V14.01,2013-03-18 01:31:00,
2013-03-17 21:37:00,22.5,6.2,30.03,North,353,0.0,0.0,49,0.00,,---,0.08,VWS V14.01,2013-03-18 01:37:00,
2013-03-17 21:42:00,22.5,6.2,30.00,North,353,0.0,0.0,49,0.00,,---,0.08,VWS V14.01,2013-03-18 01:42:00,
2013-03-17 21:47:00,21.0,-4.2,30.00,North,353,0.0,0.0,32,0.00,,---,0.08,VWS V14.01,2013-03-18 01:47:00,
2013-03-17 21:53:00,20.3,-8.3,30.00,North,353,0.0,0.0,27,0.00,,---,0.08,VWS V14.01,2013-03-18 01:53:00,
2013-03-17 21:59:00,20.3,-6.2,30.00,North,353,0.0,0.0,30,0.00,,---,0.08,VWS V14.01,2013-03-18 01:59:00,
2013-03-17 22:04:00,20.3,-6.2,30.00,North,353,0.0,0.0,30,0.00,,---,0.08,VWS V14.01,2013-03-18 02:04:00,
2013-03-17 22:09:00,20.3,-6.2,30.00,North,353,0.0,0.0,30,0.00,,---,0.08,VWS V14.01,2013-03-18 02:09:00,
2013-03-17 22:14:00,19.8,-5.3,30.00,North,353,0.0,0.0,32,0.00,,---,0.08,VWS V14.01,2013-03-18 02:14:00,
2013-03-17 22:19:00,19.8,-5.3,30.00,North,353,0.0,0.0,32,0.00,,---,0.08,VWS V14.01,2013-03-18 02:19:00,
2013-03-17 22:24:00,19.8,-5.3,30.00,North,353,0.0,0.0,32,0.00,,---,0.08,VWS V14.01,2013-03-18 02:24:00,
2013-03-17 22:30:00,19.6,-4.8,30.00,North,353,0.0,0.0,33,0.00,,---,0.08,VWS V14.01,2013-03-18 02:30:00,
2013-03-17 22:35:00,19.6,-4.8,30.00,North,353,0.0,0.0,33,0.00,,---,0.08,VWS V14.01,2013-03-18 02:35:00,
2013-03-17 22:41:00,19.4,-5.0,30.00,North,353,0.0,0.0,33,0.00,,---,0.08,VWS V14.01,2013-03-18 02:41:00,
2013-03-17 22:46:00,19.2,-5.2,30.00,North,353,0.0,0.0,33,0.00,,---,0.08,VWS V14.01,2013-03-18 02:46:00,
2013-03-17 22:52:00,19.2,-5.2,30.00,North,353,0.0,0.0,33,0.00,,---,0.08,VWS V14.01,2013-03-18 02:52:00,
2013-03-17 22:58:00,19.2,-5.2,30.00,North,353,0.0,0.0,33,0.00,,---,0.08,VWS V14.01,2013-03-18 02:58:00,
2013-03-17 23:03:00,19.0,-5.3,30.00,North,353,0.0,0.0,33,0.00,,---,0.08,VWS V14.01,2013-03-18 03:03:00,
2013-03-17 23:09:00,19.0,-5.3,30.00,North,353,0.0,0.0,33,0.00,,---,0.08,VWS V14.01,2013-03-18 03:09:00,
2013-03-17 23:14:00,19.6,-0.3,30.00,North,353,0.0,0.0,41,0.00,,---,0.08,VWS V14.01,2013-03-18 03:14:00,
2013-03-17 23:20:00,21.0,5.7,29.97,North,353,0.0,0.0,51,0.00,,---,0.08,VWS V14.01,2013-03-18 03:20:00,
2013-03-17 23:26:00,19.9,2.0,29.97,North,353,0.0,0.0,45,0.00,,---,0.08,VWS V14.01,2013-03-18 03:26:00,
2013-03-17 23:32:00,19.2,-1.7,29.97,North,353,3.1,3.1,39,0.00,,---,0.08,VWS V14.01,2013-03-18 03:32:00,
2013-03-17 23:38:00,18.7,-3.8,29.97,North,353,0.0,0.0,36,0.00,,---,0.08,VWS V14.01,2013-03-18 03:38:00,
2013-03-17 23:44:00,18.7,-3.8,29.97,North,353,0.0,0.0,36,0.00,,---,0.08,VWS V14.01,2013-03-18 03:44:00,
2013-03-17 23:49:00,18.9,-3.1,29.97,North,353,0.0,0.0,37,0.00,,---,0.08,VWS V14.01,2013-03-18 03:49:00,
2013-03-17 23:55:00,18.7,-3.8,29.97,North,353,0.0,0.0,36,0.00,,---,0.08,VWS V14.01,2013-03-18 03:55:00,